Regional Weather Roundup
Issued by NWS Kansas City/Pleasant Hill, MO

Home | Current Version | Previous Version | Graphics & Text | Print | Product List | Glossary Off
Versions: 1 2 3 4 5 6 7 8 9 10 11 12 13 14 15 16 17 18 19 20 21 22 23 24 25 26 27 28

000
ASUS43 KEAX 052210
RWREAX

WEATHER ROUNDUP FOR EASTERN KANSAS AND NORTHWEST MISSOURI
NATIONAL WEATHER SERVICE KANSAS CITY/PLEASANT HILL MO
400 PM CST MON DEC 05 2016

KSZ040-057-103>105-MOZ028-029-037-043-052300-
...KANSAS CITY METROPOLITAN AREA...

CITY           SKY/WX    TMP DP  RH WIND       PRES   REMARKS
K.C. INTL      CLEAR     50  32  50 SE13      29.74R
K.C. DOWNTOWN  CLEAR     52  35  52 S5        29.74F
LEES SUMMIT    CLOUDY    50  35  56 SE12      29.75F
OLATHE - IXD   CLEAR     50  35  56 S13       29.74S
OLATHE - OJC   CLEAR     49  34  56 S13       29.74S
LAWRENCE       CLEAR     51  38  60 SE12      29.73S

$$

MOZ001>008-011>017-020>025-030>033-038>040-044>046-053-054-052300-
...NORTHERN AND CENTRAL MISSOURI...

CITY           SKY/WX    TMP DP  RH WIND       PRES   REMARKS
ST. JOSEPH     CLEAR     51  35  54 S8        29.74S
MOSBY          CLEAR     52  32  46 SE7       29.76R
WARRENSBURG    PTCLDY    48  36  61 SE12      29.77F
WHITEMAN AFB   MOCLDY    49  35  59 S9        29.77F
CLINTON        PTCLDY    48  36  61 SE7       29.79F
SEDALIA        PTCLDY    47  33  58 SE10      29.81R
WARSAW         NOT AVBL
CHILLICOTHE      N/A     50  37  61 SE9       29.79F
KIRKSVILLE     CLOUDY    40  39  97 E6        29.83F FOG

$$

MOZ041-047>049-056>058-063>065-088>090-097-052300-
...EASTERN AND SOUTHERN MISSOURI...

CITY           SKY/WX    TMP DP  RH WIND       PRES   REMARKS
ST. LOUIS INTL MOCLDY    44  34  67 E10       29.89F
SPIRIT OF STL  PTCLDY    45  37  73 E6        29.87F
COLUMBIA       CLOUDY    45  37  73 E7        29.82F
JEFFERSON CITY PTCLDY    47  38  71 E6        29.83F
ROLLA          PTCLDY    45  34  65 SE7       29.82F
OSAGE BEACH    CLOUDY    46  35  65 SE6       29.82F
SPRINGFIELD    PTCLDY    45  36  70 SE12      29.76F
BRANSON        MOCLDY   N/A N/A N/A E8        29.79F
JOPLIN         PTCLDY    46  38  73 SE9       29.76F
WEST PLAINS    CLOUDY    44  35  70 SE9       29.84S

$$

IAZ060-094-KSZ022-034>040-054-083-096-NEZ052-066-093-052300-
...KANSAS...SOUTHEAST NEBRASKA AND IOWA...

CITY           SKY/WX    TMP DP  RH WIND       PRES   REMARKS
TOPEKA         CLEAR     51  36  56 SE13      29.73R
MANHATTAN      CLEAR     55  31  39 S14G22    29.67R
EMPORIA        CLEAR     49  37  63 SE14G25   29.70R
CHANUTE        CLEAR     49  38  65 S13       29.73F
WICHITA        MOSUNNY   52  36  54 S20G26    29.64F
OMAHA          MOCLDY    50  36  58 S21       29.64R
LINCOLN        CLEAR     52  35  52 S17G26    29.62S
FALLS CITY     CLEAR     49  37  63 S15       29.71S
LAMONI         CLEAR     47  35  63 S12G20    29.75F
DES MOINES     PTCLDY    47  34  60 S17       29.75F

$$





USA.gov is the U.S. government's official web portal to all federal, state and local government web resources and services.